TimeCST,TemperatureF,Dew PointF,Humidity,Sea Level PressureIn,VisibilityMPH,Wind Direction,Wind SpeedMPH,Gust SpeedMPH,PrecipitationIn,Events,Conditions,WindDirDegrees,DateUTC
12:53 AM,37.0,15.1,41,29.85,10.0,West,9.2,-,N/A,,Clear,270,2014-01-20 06:53:00
1:53 AM,37.0,14.0,39,29.85,10.0,West,4.6,-,N/A,,Clear,280,2014-01-20 07:53:00
2:53 AM,35.1,12.9,40,29.85,10.0,West,8.1,-,N/A,,Clear,270,2014-01-20 08:53:00
3:53 AM,35.1,10.9,37,29.86,10.0,Calm,Calm,-,N/A,,Clear,0,2014-01-20 09:53:00
4:53 AM,35.1,12.0,39,29.87,10.0,Calm,Calm,-,N/A,,Clear,0,2014-01-20 10:53:00
5:53 AM,39.0,12.0,33,29.88,10.0,NW,10.4,-,N/A,,Clear,320,2014-01-20 11:53:00
6:53 AM,43.0,12.0,28,29.91,10.0,NW,18.4,-,N/A,,Clear,320,2014-01-20 12:53:00
7:53 AM,39.9,10.9,31,29.97,10.0,North,17.3,-,N/A,,Clear,350,2014-01-20 13:53:00
8:53 AM,42.1,10.9,28,30.01,10.0,NNW,13.8,-,N/A,,Clear,340,2014-01-20 14:53:00
9:53 AM,48.0,12.9,24,30.06,10.0,North,23.0,-,N/A,,Clear,360,2014-01-20 15:53:00
10:53 AM,51.1,16.0,25,30.11,10.0,North,28.8,35.7,N/A,,Clear,10,2014-01-20 16:53:00
11:53 AM,53.1,17.1,24,30.12,10.0,North,25.3,32.2,N/A,,Clear,10,2014-01-20 17:53:00
12:53 PM,52.0,16.0,24,30.15,10.0,North,24.2,31.1,N/A,,Clear,10,2014-01-20 18:53:00
1:53 PM,51.1,16.0,25,30.17,10.0,NNE,25.3,32.2,N/A,,Clear,20,2014-01-20 19:53:00
2:53 PM,54.0,14.0,21,30.17,10.0,North,19.6,28.8,N/A,,Clear,10,2014-01-20 20:53:00
3:53 PM,55.0,14.0,20,30.19,10.0,North,18.4,25.3,N/A,,Clear,360,2014-01-20 21:53:00
4:53 PM,55.0,15.1,21,30.22,10.0,North,19.6,26.5,N/A,,Clear,360,2014-01-20 22:53:00
5:53 PM,50.0,17.1,27,30.26,10.0,North,15.0,-,N/A,,Clear,360,2014-01-20 23:53:00
6:53 PM,41.0,16.0,36,30.30,10.0,NNW,11.5,-,N/A,,Clear,340,2014-01-21 00:53:00
7:53 PM,36.0,14.0,41,30.35,10.0,NNW,10.4,-,N/A,,Clear,340,2014-01-21 01:53:00
8:53 PM,39.0,14.0,36,30.36,10.0,NW,10.4,-,N/A,,Clear,320,2014-01-21 02:53:00
9:53 PM,36.0,14.0,41,30.37,10.0,WNW,9.2,-,N/A,,Clear,300,2014-01-21 03:53:00
10:19 PM,36.0,12.9,39,30.39,10.0,NW,11.5,-,N/A,,Mostly Cloudy,320,2014-01-21 04:19:00
10:53 PM,35.1,12.9,40,30.40,10.0,NNW,10.4,-,N/A,,Overcast,330,2014-01-21 04:53:00
11:19 PM,34.0,12.9,42,30.41,10.0,NNW,9.2,-,N/A,,Scattered Clouds,330,2014-01-21 05:19:00
11:53 PM,30.9,12.9,47,30.41,10.0,NNW,9.2,-,N/A,,Clear,340,2014-01-21 05:53:00